TimeCDT,TemperatureF,Dew PointF,Humidity,Sea Level PressureIn,VisibilityMPH,Wind Direction,Wind SpeedMPH,Gust SpeedMPH,PrecipitationIn,Events,Conditions,WindDirDegrees,DateUTC
12:15 AM,37.0,34.7,91,29.69,7.0,Calm,Calm,-,N/A,,Clear,0,2014-03-11 05:15:00
12:35 AM,36.1,33.4,90,29.69,7.0,Calm,Calm,-,N/A,,Clear,0,2014-03-11 05:35:00
12:55 AM,35.6,33.4,92,29.69,7.0,Calm,Calm,-,N/A,,Clear,0,2014-03-11 05:55:00
1:15 AM,35.6,33.6,92,29.68,7.0,Calm,Calm,-,N/A,,Clear,0,2014-03-11 06:15:00
1:35 AM,34.7,32.9,93,29.68,7.0,Calm,Calm,-,N/A,,Clear,0,2014-03-11 06:35:00
1:55 AM,35.6,33.8,93,29.69,7.0,Calm,Calm,-,N/A,,Clear,0,2014-03-11 06:55:00
2:15 AM,34.7,32.7,92,29.68,7.0,Calm,Calm,-,N/A,,Clear,0,2014-03-11 07:15:00
2:35 AM,34.3,32.5,93,29.69,7.0,Calm,Calm,-,N/A,,Clear,0,2014-03-11 07:35:00
2:50 AM,34.2,32.4,93,29.68,7.0,Calm,Calm,-,N/A,,Clear,0,2014-03-11 07:50:00
3:15 AM,33.8,32.2,94,29.66,5.0,Calm,Calm,-,N/A,,Clear,0,2014-03-11 08:15:00
3:35 AM,33.4,32.0,94,29.66,5.0,Calm,Calm,-,N/A,,Clear,0,2014-03-11 08:35:00
3:55 AM,33.6,32.4,95,29.66,5.0,Calm,Calm,-,N/A,,Clear,0,2014-03-11 08:55:00
4:15 AM,33.8,32.5,95,29.65,5.0,North,3.5,-,N/A,,Scattered Clouds,10,2014-03-11 09:15:00
4:35 AM,34.0,32.5,94,29.65,7.0,Calm,Calm,-,N/A,,Mostly Cloudy,0,2014-03-11 09:35:00
4:55 AM,34.0,32.2,93,29.65,7.0,Calm,Calm,-,N/A,,Mostly Cloudy,0,2014-03-11 09:55:00
5:15 AM,34.0,32.2,93,29.66,7.0,NW,4.6,-,N/A,,Scattered Clouds,320,2014-03-11 10:15:00
5:35 AM,35.1,32.4,90,29.66,10.0,Calm,Calm,-,N/A,,Clear,0,2014-03-11 10:35:00
5:55 AM,35.4,32.5,89,29.66,10.0,Calm,Calm,-,N/A,,Clear,0,2014-03-11 10:55:00
6:15 AM,35.8,32.9,89,29.66,10.0,Calm,Calm,-,N/A,,Clear,0,2014-03-11 11:15:00
6:35 AM,35.4,32.5,89,29.66,10.0,Calm,Calm,-,N/A,,Scattered Clouds,0,2014-03-11 11:35:00
6:55 AM,36.0,32.9,89,29.66,10.0,Calm,Calm,-,N/A,,Scattered Clouds,0,2014-03-11 11:55:00
7:15 AM,36.3,32.7,87,29.67,10.0,Calm,Calm,-,N/A,,Clear,0,2014-03-11 12:15:00
7:35 AM,37.4,32.9,84,29.66,10.0,Calm,Calm,-,N/A,,Mostly Cloudy,0,2014-03-11 12:35:00
7:55 AM,36.5,32.9,87,29.66,10.0,Calm,Calm,-,N/A,,Scattered Clouds,0,2014-03-11 12:55:00
8:15 AM,36.9,32.7,85,29.67,10.0,Calm,Calm,-,N/A,,Scattered Clouds,0,2014-03-11 13:15:00
8:35 AM,37.4,32.9,84,29.67,10.0,South,3.5,-,N/A,,Overcast,180,2014-03-11 13:35:00
8:55 AM,36.5,32.9,87,29.68,10.0,SSW,3.5,-,N/A,,Overcast,210,2014-03-11 13:55:00
9:15 AM,38.3,33.1,81,29.68,10.0,Calm,Calm,-,N/A,,Overcast,0,2014-03-11 14:15:00
9:35 AM,37.0,32.7,84,29.67,7.0,East,4.6,-,N/A,,Scattered Clouds,100,2014-03-11 14:35:00
9:55 AM,37.6,33.3,84,29.68,10.0,Calm,Calm,-,N/A,,Scattered Clouds,0,2014-03-11 14:55:00
10:15 AM,40.3,34.2,79,29.70,10.0,North,3.5,-,N/A,,Scattered Clouds,360,2014-03-11 15:15:00
10:35 AM,41.5,33.8,74,29.69,10.0,North,4.6,-,N/A,,Scattered Clouds,10,2014-03-11 15:35:00
10:55 AM,42.8,33.3,69,29.69,10.0,NE,5.8,-,N/A,,Scattered Clouds,40,2014-03-11 15:55:00
11:15 AM,43.2,33.3,68,29.68,10.0,ENE,5.8,-,N/A,,Mostly Cloudy,60,2014-03-11 16:15:00
11:35 AM,43.5,32.9,66,29.70,10.0,NE,6.9,-,N/A,,Scattered Clouds,40,2014-03-11 16:35:00
11:55 AM,44.2,32.4,63,29.71,10.0,NE,6.9,-,N/A,,Scattered Clouds,40,2014-03-11 16:55:00
12:15 PM,45.0,32.4,61,29.70,10.0,NNE,6.9,-,N/A,,Mostly Cloudy,30,2014-03-11 17:15:00
12:35 PM,45.7,32.0,59,29.70,10.0,NE,9.2,-,N/A,,Mostly Cloudy,40,2014-03-11 17:35:00
12:55 PM,45.7,31.5,58,29.69,10.0,NNE,13.8,-,N/A,,Overcast,20,2014-03-11 17:55:00
1:15 PM,46.0,31.6,57,29.72,10.0,North,10.4,16.1,N/A,,Mostly Cloudy,10,2014-03-11 18:15:00
1:35 PM,46.0,32.0,58,29.72,10.0,NNE,13.8,18.4,N/A,,Clear,30,2014-03-11 18:35:00
1:55 PM,46.4,32.2,58,29.69,10.0,NNE,19.6,24.2,N/A,,Scattered Clouds,30,2014-03-11 18:55:00
2:15 PM,46.4,33.1,60,29.67,10.0,NNE,25.3,31.1,N/A,,Scattered Clouds,20,2014-03-11 19:15:00
2:35 PM,45.9,32.7,60,29.69,10.0,NNE,23.0,29.9,N/A,,Clear,20,2014-03-11 19:35:00
2:55 PM,45.1,32.9,62,29.69,10.0,NNE,13.8,23.0,N/A,,Clear,20,2014-03-11 19:55:00
3:15 PM,44.6,33.3,64,29.70,10.0,NNE,19.6,24.2,N/A,,Clear,30,2014-03-11 20:15:00
3:35 PM,44.1,34.0,68,29.71,10.0,NNE,13.8,24.2,N/A,,Clear,20,2014-03-11 20:35:00
3:55 PM,43.3,34.2,70,29.70,10.0,NNE,15.0,23.0,N/A,,Clear,20,2014-03-11 20:55:00
4:15 PM,43.0,34.5,72,29.72,10.0,NNE,15.0,20.7,N/A,,Clear,20,2014-03-11 21:15:00
4:35 PM,42.8,34.7,73,29.71,10.0,NNE,12.7,20.7,N/A,,Scattered Clouds,20,2014-03-11 21:35:00
4:55 PM,42.8,34.2,72,29.70,10.0,NNE,12.7,23.0,N/A,,Scattered Clouds,20,2014-03-11 21:55:00
5:15 PM,42.3,33.8,72,29.71,10.0,NNE,19.6,24.2,N/A,,Clear,20,2014-03-11 22:15:00
5:35 PM,41.9,33.4,72,29.71,10.0,NNE,13.8,24.2,N/A,,Clear,20,2014-03-11 22:35:00
5:55 PM,41.0,33.3,74,29.72,10.0,NNE,15.0,28.8,N/A,,Clear,30,2014-03-11 22:55:00
6:15 PM,40.5,33.3,75,29.74,10.0,NNE,13.8,20.7,N/A,,Clear,20,2014-03-11 23:15:00
6:35 PM,40.1,33.4,77,29.76,10.0,North,12.7,-,N/A,,Mostly Cloudy,360,2014-03-11 23:35:00
6:55 PM,39.7,33.3,78,29.76,10.0,NNE,11.5,16.1,N/A,,Overcast,20,2014-03-11 23:55:00
7:15 PM,39.7,33.3,78,29.80,10.0,North,9.2,-,N/A,,Overcast,360,2014-03-12 00:15:00
7:35 PM,39.2,33.1,79,29.80,10.0,North,11.5,18.4,N/A,,Overcast,10,2014-03-12 00:35:00
7:55 PM,39.4,33.1,78,29.80,10.0,North,8.1,-,N/A,,Overcast,350,2014-03-12 00:55:00
8:15 PM,38.8,33.3,80,29.80,10.0,North,10.4,-,N/A,Thunderstorm,Unknown,360,2014-03-12 01:15:00
8:35 PM,38.3,33.4,83,29.79,10.0,North,10.4,-,N/A,Rain,Light Rain,360,2014-03-12 01:35:00
8:55 PM,38.3,33.8,84,29.78,10.0,North,11.5,18.4,N/A,Rain,Light Rain,360,2014-03-12 01:55:00
9:15 PM,38.1,33.8,84,29.78,10.0,NNE,11.5,-,N/A,,Drizzle,20,2014-03-12 02:15:00
9:35 PM,37.9,33.8,85,29.78,10.0,North,8.1,-,N/A,Thunderstorm,Unknown,10,2014-03-12 02:35:00
9:55 PM,38.3,33.6,83,29.79,10.0,North,10.4,-,N/A,,Overcast,10,2014-03-12 02:55:00
10:15 PM,38.1,33.4,83,29.79,10.0,North,8.1,-,N/A,,Overcast,360,2014-03-12 03:15:00
10:35 PM,37.6,33.8,86,29.77,10.0,North,9.2,-,N/A,,Overcast,360,2014-03-12 03:35:00
10:55 PM,37.4,33.8,87,29.77,10.0,North,8.1,-,N/A,,Overcast,360,2014-03-12 03:55:00
11:15 PM,37.4,33.8,87,29.78,10.0,North,6.9,-,N/A,,Overcast,360,2014-03-12 04:15:00
11:35 PM,36.7,33.6,89,29.76,10.0,North,6.9,-,N/A,,Overcast,360,2014-03-12 04:35:00
11:55 PM,36.7,33.4,88,29.76,10.0,North,5.8,-,N/A,,Overcast,360,2014-03-12 04:55:00